Regional Weather Roundup
Issued by NWS

Home | Current Version | Previous Version | Text Only | Print | Product List | Glossary On
Versions: 1 2 3 4 5 6 7 8 9 10 11 12 13 14 15 16 17 18 19 20 21 22 23 24 25 26 27 28 29 30 31 32 33 34 35 36 37 38 39 40 41 42 43 44 45 46 47 48 49 50
000
ASUS43 KDMX 252206
RWRIA

WEATHER ROUNDUP FOR IOWA
NATIONAL WEATHER SERVICE DES MOINES IA
500 PM CDT FRI MAY 25 2018

NOTE: "FAIR" INDICATES FEW OR NO CLOUDS BELOW 12,000 FEET WITH NO
SIGNIFICANT WEATHER AND/OR OBSTRUCTIONS TO VISIBILITY.

* - THESE STATIONS ARE NOT NWS STATIONS...THUS NOT UNDER NWS
QUALITY CONTROL.  THEY ALSO DO NOT REPORT WEATHER SUCH
AS PRECIPITATION OR FOG.

IAZ001>003-012>014-020>022-031>034-043>046-252300-
   NORTHWEST IOWA

CITY           SKY/WX    TMP DP  RH WIND       PRES   REMARKS
CARROLL *      SUNNY     95  55  26 W9G21     29.72F HX  93
CHEROKEE *     MOSUNNY   86  62  44 CALM      29.73F HX  86
DENISON *      CLOUDY    91  61  35 CALM      29.75F HX  91
LE MARS *      MOSUNNY   95  50  21 SW6G14    29.73F HX  92
ORANGE CITY *  MOSUNNY   91  52  25 W14       29.74F HX  89
SHELDON *      SUNNY     93  48  21 W15G21    29.72F HX  90
SIOUX CITY     SUNNY     93  61  34 E3        29.73F HX  93
SPENCER        SUNNY     92  56  29 W14G21    29.72F HX  90
STORM LAKE *   SUNNY     90  55  31 NW6G16    29.75S HX  88
$$

IAZ055>058-069>071-079>083-090>094-252300-
   SOUTHWEST IOWA

CITY           SKY/WX    TMP DP  RH WIND       PRES   REMARKS
ATLANTIC *     SUNNY     91  63  38 W8G17     29.74F HX  92
AUDUBON *      SUNNY     91  59  33 SW7       29.76F HX  90
CLARINDA *     SUNNY     91  63  38 CALM      29.78F HX  92
COUNCIL BLFS * MOSUNNY   91  63  38 S6        29.75F HX  92
CRESTON *      SUNNY     88  63  42 SW14      29.79F HX  88
HARLAN  *      CLOUDY    90  59  35 W10       29.78F HX  89
LAMONI         SUNNY     84  65  52 W8        29.79F HX  86
RED OAK *      SUNNY     91  59  33 W9G15     29.76S HX  90
SHENANDOAH *   SUNNY     93  57  29 W8        29.76S HX  92
$$

IAZ047>049-059>061-072>074-084-252300-
   CENTRAL IOWA

CITY           SKY/WX    TMP DP  RH WIND       PRES   REMARKS
AMES           MOSUNNY   88  67  49 S10G21    29.72F HX  91
ANKENY *       MOSUNNY   88  68  51 SW12      29.74F HX  91
BOONE *        SUNNY     91  63  38 SW9G15    29.72F HX  92
CHARITON *     MOSUNNY   84  64  51 SW9       29.78F HX  86
DES MOINES     SUNNY     87  68  52 S14       29.73F HX  90
GRINNELL*      CLOUDY    84  67  56 SW10      29.78F HX  87
KNOXVILLE *    MOSUNNY   82  68  61 SW9       29.76F HX  85
MARSHALLTOWN   MOSUNNY   88  66  48 SW10      29.73F HX  90
NEWTON *       MOSUNNY   86  68  54 SW10G16   29.76F HX  89
PELLA *        PTSUNNY   84  68  58 SW10      29.78F HX  87
PERRY *        PTSUNNY   92  57  30 SW14G20   29.72F HX  91
$$

IAZ004>006-015-016-023>025-035-036-252300-
   NORTH CENTRAL IOWA

CITY           SKY/WX    TMP DP  RH WIND       PRES   REMARKS
ALGONA *       MOSUNNY   88  63  42 VRB5G12   29.72F HX  88
CLARION *      PTSUNNY   91  57  31 NW10G18   29.71F HX  90
ESTHERVILLE    SUNNY     87  59  38 NW8       29.72F HX  86
FORT DODGE *   SUNNY     92  60  34 W9        29.71F HX  91
MASON CITY     CLOUDY    87  65  47 W9        29.72F HX  89
FOREST CITY *  FAIR      88  61  40 W8        29.73S HX  88
WEBSTER CITY * MOSUNNY   91  63  38 SE9       29.69F HX  92
IOWA FALLS *   FAIR      89  65  44 S8        29.74F HX  91
$$

IAZ007>011-017>019-026>030-037>042-050>054-066-252300-
   NORTHEAST IOWA

CITY           SKY/WX    TMP DP  RH WIND       PRES   REMARKS
CEDAR RAPIDS   FAIR      83  66  56 SW10      29.76F HX  85
CHARLES CITY * FAIR      90  61  37 SW14      29.72F HX  89
CLINTON *        N/A     78  67  68 S10       29.79F HX  80
DUBUQUE        FAIR      82  65  56 S10       29.78F HX  84
MONTICELLO *   FAIR      86  64  48 S12G18    29.76F HX  87
OELWEIN *      FAIR      88  63  42 S14       29.75F HX  88
WATERLOO       FAIR      86  65  49 SW14      29.72F HX  88
$$

IAZ064-065-067-068-078-252300-
   EAST CENTRAL IOWA

CITY           SKY/WX    TMP DP  RH WIND       PRES   REMARKS
DAVENPORT      FAIR      80  64  58 S13       29.80F HX  82
IOWA CITY      FAIR      86  66  51 S9        29.77F HX  88
MT. PLEASANT * CLOUDY    82  63  51 S9        29.78F HX  83
MUSCATINE *    FAIR      81  68  65 SE10      29.77F HX  83
QUAD CITIES    FAIR      79  67  66 CALM      29.77F HX  81
$$

IAZ062-063-075>077-085>089-095>099-252300-
   SOUTHEAST IOWA

CITY           SKY/WX    TMP DP  RH WIND       PRES   REMARKS
BURLINGTON     CLOUDY    82  66  58 W6        29.78F HX  84
FAIRFIELD *    CLOUDY    84  64  51 S8G14     29.78F HX  86
FORT MADISON * CLOUDY    82  68  61 S6        29.79F HX  85
KEOKUK *       CLOUDY    82  68  61 W7        29.78F HX  85
OSKALOOSA *    FAIR      85  66  53 SW9G16    29.78F HX  87
CENTERVILLE *  FAIR      82  66  57 SW9       29.81F HX  85
OTTUMWA        CLOUDY    84  66  54 SW12      29.77F HX  86
WASHINGTON *   CLOUDY    84  66  54 S9        29.79F HX  86
$$

ABBREVIATIONS USED IN REMARKS
   TC - TEMPERATURES IN CELSIUS
  WCI - WIND CHILL INDEX
   HX - HEAT INDEX
  VSB - VISIBILITY
$$





USA.gov is the U.S. government's official web portal to all federal, state and local government web resources and services.